Total_Precipitation_Accumulation
0.24 0.31 0.30 0.30 0.34 0.47 0.68 0.80 0.83 0.57 0.25 0.11 0.12 0.08 0.07 0.09 0.13 0.11 0.08 0.22 0.19 0.14 0.10 0.07 0.07 0.06 0.06 0.05 0.04 0.02 0.01 0.01 0.01 0.02 0.02 0.02 0.02 0.03
0.32 0.36 0.35 0.37 0.42 0.43 0.42 0.43 0.58 0.74 0.64 0.23 0.18 0.17 0.15 0.16 0.23 0.21 0.21 0.28 0.22 0.18 0.14 0.13 0.11 0.08 0.05 0.03 0.01 0.01 0.01 0.02 0.02 0.03 0.04 0.04 0.04 0.04
0.39 0.43 0.42 0.36 0.33 0.30 0.30 0.32 0.36 0.42 0.48 0.36 0.34 0.30 0.28 0.27 0.25 0.21 0.18 0.13 0.13 0.15 0.09 0.07 0.04 0.02 0.02 0.02 0.02 0.02 0.02 0.03 0.04 0.03 0.03 0.05 0.05 0.05
0.51 0.51 0.45 0.40 0.37 0.34 0.31 0.29 0.26 0.26 0.30 0.32 0.35 0.33 0.31 0.22 0.15 0.13 0.11 0.08 0.07 0.09 0.09 0.07 0.07 0.06 0.06 0.06 0.07 0.07 0.07 0.06 0.07 0.08 0.07 0.07 0.07 0.10
0.42 0.36 0.37 0.42 0.45 0.47 0.48 0.45 0.38 0.31 0.26 0.25 0.22 0.18 0.14 0.08 0.03 0.03 0.03 0.03 0.02 0.08 0.10 0.11 0.13 0.10 0.08 0.08 0.08 0.08 0.09 0.08 0.08 0.08 0.08 0.09 0.09 0.11
0.24 0.16 0.11 0.10 0.12 0.12 0.12 0.10 0.06 0.03 0.02 0.02 0.02 0.01 0.01 0.01 0.02 0.03 0.03 0.03 0.05 0.07 0.11 0.13 0.16 0.15 0.12 0.10 0.08 0.07 0.07 0.07 0.09 0.10 0.11 0.11 0.11 0.12
0.05 0.02 0.01 0.01 0.00 0.00 0.00 0.00 0.00 0.00 0.00 0.00 0.00 0.01 0.01 0.01 0.02 0.03 0.04 0.05 0.08 0.09 0.10 0.12 0.16 0.16 0.16 0.18 0.15 0.13 0.11 0.12 0.16 0.18 0.18 0.16 0.15 0.15
0.00 0.01 0.00 0.00 0.00 0.00 0.00 0.00 0.00 0.00 0.00 0.00 0.01 0.01 0.01 0.02 0.03 0.04 0.06 0.12 0.15 0.10 0.11 0.11 0.13 0.14 0.10 0.09 0.13 0.13 0.15 0.18 0.22 0.22 0.21 0.20 0.19 0.17
0.00 0.00 0.00 0.00 0.00 0.00 0.00 0.00 0.00 0.00 0.00 0.01 0.01 0.01 0.01 0.02 0.05 0.07 0.07 0.12 0.14 0.10 0.12 0.14 0.13 0.16 0.16 0.18 0.29 0.29 0.28 0.33 0.36 0.34 0.29 0.24 0.20 0.15
0.00 0.00 0.00 0.00 0.00 0.00 0.00 0.00 0.00 0.00 0.00 0.00 0.01 0.01 0.01 0.02 0.05 0.09 0.14 0.18 0.19 0.16 0.15 0.19 0.10 0.10 0.14 0.14 0.26 0.32 0.33 0.32 0.34 0.33 0.32 0.31 0.29 0.26
0.00 0.00 0.00 0.00 0.00 0.00 0.00 0.00 0.00 0.00 0.00 0.00 0.01 0.01 0.02 0.05 0.08 0.12 0.15 0.19 0.23 0.16 0.14 0.23 0.18 0.17 0.15 0.16 0.24 0.43 0.41 0.32 0.30 0.28 0.25 0.27 0.30 0.31
0.00 0.00 0.00 0.00 0.00 0.00 0.00 0.00 0.00 0.00 0.00 0.00 0.00 0.00 0.01 0.03 0.08 0.09 0.10 0.19 0.29 0.29 0.21 0.39 0.40 0.36 0.36 0.24 0.17 0.19 0.30 0.34 0.35 0.34 0.34 0.32 0.31 0.23
0.00 0.00 0.00 0.00 0.00 0.00 0.00 0.00 0.01 0.01 0.01 0.01 0.01 0.00 0.01 0.02 0.05 0.08 0.08 0.15 0.25 0.27 0.24 0.53 0.51 0.51 0.63 0.42 0.30 0.30 0.36 0.35 0.33 0.31 0.29 0.26 0.22 0.17
0.00 0.00 0.00 0.00 0.00 0.00 0.00 0.00 0.01 0.01 0.01 0.01 0.01 0.01 0.02 0.04 0.06 0.12 0.12 0.17 0.21 0.27 0.27 0.34 0.40 0.31 0.52 0.42 0.30 0.27 0.30 0.28 0.27 0.29 0.29 0.23 0.14 0.09
0.00 0.00 0.00 0.00 0.00 0.00 0.00 0.00 0.00 0.00 0.01 0.01 0.01 0.01 0.01 0.03 0.08 0.11 0.10 0.10 0.11 0.18 0.27 0.30 0.42 0.37 0.35 0.27 0.23 0.25 0.28 0.19 0.22 0.20 0.20 0.14 0.07 0.04
0.00 0.00 0.00 0.00 0.00 0.00 0.00 0.00 0.00 0.01 0.02 0.02 0.02 0.01 0.02 0.03 0.05 0.10 0.12 0.10 0.12 0.13 0.22 0.31 0.41 0.43 0.31 0.21 0.19 0.15 0.16 0.17 0.18 0.17 0.07 0.03 0.02 0.01
0.00 0.00 0.00 0.00 0.00 0.00 0.00 0.00 0.00 0.00 0.01 0.01 0.01 0.02 0.05 0.06 0.06 0.08 0.10 0.11 0.11 0.08 0.15 0.26 0.33 0.36 0.30 0.23 0.16 0.13 0.10 0.12 0.15 0.15 0.06 0.01 0.00 0.00
0.00 0.00 0.00 0.00 0.00 0.00 0.00 0.00 0.00 0.00 0.01 0.01 0.01 0.02 0.04 0.05 0.07 0.07 0.08 0.11 0.12 0.10 0.11 0.14 0.26 0.31 0.29 0.18 0.14 0.08 0.06 0.07 0.10 0.13 0.05 0.01 0.00 0.00
0.00 0.00 0.00 0.00 0.00 0.00 0.00 0.00 0.01 0.00 0.00 0.01 0.02 0.02 0.03 0.04 0.07 0.06 0.07 0.08 0.09 0.09 0.10 0.11 0.18 0.27 0.31 0.23 0.16 0.09 0.05 0.03 0.03 0.06 0.02 0.00 0.00 0.00
0.00 0.00 0.00 0.00 0.00 0.00 0.00 0.01 0.01 0.01 0.01 0.01 0.02 0.02 0.03 0.07 0.06 0.04 0.06 0.10 0.12 0.11 0.08 0.09 0.13 0.20 0.26 0.27 0.24 0.13 0.04 0.02 0.02 0.02 0.01 0.01 0.01 0.01
0.00 0.00 0.00 0.00 0.01 0.00 0.01 0.01 0.01 0.01 0.01 0.01 0.02 0.02 0.03 0.08 0.07 0.04 0.07 0.10 0.14 0.13 0.12 0.09 0.10 0.16 0.22 0.20 0.17 0.13 0.05 0.05 0.03 0.02 0.02 0.04 0.04 0.06
0.00 0.00 0.00 0.00 0.01 0.00 0.00 0.01 0.01 0.01 0.01 0.01 0.02 0.03 0.03 0.08 0.09 0.06 0.07 0.09 0.08 0.13 0.16 0.13 0.13 0.14 0.15 0.11 0.11 0.14 0.07 0.08 0.05 0.01 0.08 0.15 0.15 0.17
0.00 0.00 0.00 0.00 0.00 0.01 0.01 0.01 0.01 0.01 0.01 0.02 0.03 0.03 0.05 0.07 0.07 0.07 0.09 0.10 0.10 0.14 0.14 0.15 0.14 0.14 0.12 0.11 0.10 0.13 0.11 0.11 0.14 0.14 0.16 0.12 0.12 0.20